Flag for Poland Weather past 2 weeks in Zielona Góra, Poland

Now
62 °F

Overcast.


Feels Like: 62 °F
Forecast: 53 / 68 °F
Wind: 1 mph from Northwest

Location: Zielona Gora

Current Time: Sep 30, 2014 at 11:57:13 AM

Latest Report: Sep 30, 2014 at 11:00 AM


Visibility: 9 mi

Pressure: 30.24 "Hg

Humidity: 87%

Dew point: 58 °F

Location of Zielona GóraLocation

Historic Weather in Zielona Góra — Graph

°F

Zielona Góra temperature yesterday

Maximum temperature yesterday: 73 °F (at 5:00 PM)
Minimum temperature yesterday: 51 °F (at 5:00 AM)
Average temperature yesterday: 61 °F

Past Weeks' High & Low Weather Summary

 TemperatureHumidityPressure
High75 °F (Sep 15, 5:00 PM)99% (Sep 21, 2:00 AM)30.40 "Hg (Sep 21, 2:00 AM)
Low40 °F (Sep 24, 7:00 AM)49% (Sep 15, 5:00 PM)29.76 "Hg (Sep 22, 2:00 PM)
Average58 °F80%30.06 "Hg
* Reported Sep 15 10:00 AM — Sep 30 10:00 AM, Zielona Góra, Weather by CustomWeather, © 2014

Note: Actual official high and low records may vary slightly from our data, if they occured in-between our weather recording intervals... More about our weather records

Advertising

Zielona Góra weather history for previous 24 hours

 ConditionsComfort  
Time TempWeatherWind HumidityBarometerVisibility
10:00 AM
Sep 30
60 °FSprinkles. Overcast.2 mph89%30.23 "Hg7 mi
9:00 AM60 °FOvercast.2 mph86%30.23 "Hg7 mi
8:00 AM60 °FOvercast.3 mph85%30.22 "Hg9 mi
7:00 AM60 °FOvercast.3 mph85%30.21 "Hg12 mi
6:00 AM61 °FOvercast.2 mph84%30.20 "Hg12 mi
5:00 AM60 °FOvercast.2 mph86%30.20 "Hg12 mi
4:00 AM61 °FOvercast.2 mph83%30.19 "Hg12 mi
3:00 AM61 °FOvercast.3 mph82%30.19 "Hg16 mi
2:00 AM62 °FOvercast.3 mph81%30.20 "Hg16 mi
1:00 AM62 °FOvercast.3 mph81%30.20 "Hg16 mi
12:00 AM62 °FOvercast.2 mph81%30.20 "Hg16 mi
11:00 PM
Sep 29
62 °FOvercast.2 mph85%30.20 "Hg16 mi
10:00 PM63 °FPassing clouds.2 mph83%30.21 "Hg16 mi
9:00 PM64 °FPassing clouds.2 mph79%30.21 "Hg16 mi
8:00 PM66 °FPassing clouds.1 mph73%30.21 "Hg16 mi
7:00 PM68 °FPassing clouds.1 mph70%30.20 "Hg16 mi
6:00 PM71 °FPartly sunny.1 mph61%30.19 "Hg19 mi
5:00 PM73 °FScattered clouds.2 mph58%30.19 "Hg22 mi
4:00 PM73 °FScattered clouds.3 mph57%30.19 "Hg22 mi
3:00 PM72 °FScattered clouds.2 mph60%30.20 "Hg22 mi
2:00 PM70 °FScattered clouds.3 mph63%30.21 "Hg19 mi
1:00 PM68 °FPartly sunny.3 mph66%30.22 "Hg19 mi
12:00 PM66 °FOvercast.2 mph70%30.24 "Hg16 mi
11:00 AM62 °FOvercast.3 mph75%30.25 "Hg16 mi
Weather by CustomWeather, © 2014

See weather overviewHow to use our weather pages